Wind_Speed
19 20 20 20 21 20 20 20 19 19 18 17 17 16 16 15 15 14 14 13 13 14 14 15 15 16 15 14 14 15 15 13 9 8 7 5 10 10 9 12 14 14 10 11 14 12 13 15 16 17 18 19 16 13 13 11 14 10 2 1 2 2 2 2 1 1 5 4 2 3 4 3 4 6 10 13 12 15 17 16 16 19 26 28 32 39 40 39
19 20 20 21 21 21 21 20 19 19 18 17 17 16 16 16 15 14 14 13 13 13 13 14 14 15 15 14 15 16 16 14 9 7 4 2 6 9 9 9 11 15 14 15 17 16 15 15 16 16 17 17 15 14 12 12 14 9 1 1 3 3 3 4 2 2 5 5 5 6 6 4 5 8 10 11 13 16 13 15 17 20 26 31 37 39 38 39
19 20 21 21 21 21 21 21 20 19 18 18 17 17 17 16 15 15 14 14 13 13 13 13 14 15 14 15 16 17 17 13 7 4 1 2 2 3 8 10 10 13 16 17 18 17 15 15 15 16 17 15 13 15 14 12 12 10 6 2 4 4 2 3 1 3 7 10 7 5 5 5 4 7 7 7 14 14 9 14 17 22 32 37 39 39 39 38
20 20 21 21 21 22 22 22 21 19 18 18 17 17 17 17 16 16 14 13 13 13 12 13 14 13 14 16 16 16 16 9 2 1 3 6 7 4 3 9 11 13 16 18 18 17 14 15 15 17 16 12 14 16 13 12 11 8 8 4 4 6 3 4 3 5 4 14 10 6 3 2 3 5 9 6 9 8 9 18 20 28 39 39 40 40 38 37
21 21 21 22 22 22 22 22 21 20 19 18 18 17 17 17 17 16 15 13 12 12 12 12 13 13 14 15 15 15 11 4 2 2 5 8 8 7 2 5 10 12 15 18 19 18 16 17 17 17 14 9 11 12 12 16 13 7 11 12 8 8 4 6 9 1 1 12 14 10 6 2 3 7 10 7 4 5 12 21 25 33 41 41 43 40 37 38
21 21 22 22 22 22 22 23 23 21 19 18 17 17 18 17 17 17 15 13 12 12 12 11 11 12 13 13 15 12 5 3 2 3 5 8 8 7 4 3 8 12 16 20 20 18 16 17 17 16 11 8 8 8 12 20 17 7 9 13 12 11 7 9 14 8 5 11 13 12 11 9 6 5 10 8 10 5 12 18 27 35 40 40 42 40 37 38
22 22 22 22 22 22 23 23 23 22 20 18 17 17 18 18 18 17 16 13 12 11 11 10 10 11 12 13 12 8 6 2 0 5 9 10 11 7 6 5 8 13 18 23 22 18 15 16 17 15 10 7 9 10 14 18 18 11 6 9 14 18 13 12 16 13 10 10 11 13 11 10 8 6 10 8 9 8 10 16 29 37 39 39 38 38 37 37
21 21 22 22 22 22 23 23 23 23 21 19 17 18 18 18 18 17 16 14 12 11 10 10 10 10 13 12 9 7 8 4 3 9 12 13 12 6 7 7 9 15 22 24 23 19 13 15 18 15 8 7 11 12 14 14 12 11 8 11 15 18 16 14 15 15 14 10 10 11 8 8 10 10 9 6 9 14 11 17 30 36 38 38 37 36 35 36
21 21 21 21 21 22 22 23 23 23 21 19 17 17 18 17 17 17 15 14 12 10 8 9 9 11 13 7 5 6 5 1 4 9 12 14 13 7 5 6 10 18 23 25 23 18 13 15 16 14 9 9 13 12 13 10 5 9 12 12 14 15 15 16 16 17 18 12 11 10 6 7 10 10 8 9 14 15 14 21 30 36 37 36 36 35 36 36
22 21 21 21 21 21 22 23 23 22 20 18 17 17 17 17 17 16 15 13 11 8 7 8 9 11 9 2 3 3 1 3 6 8 7 10 11 6 4 4 11 20 23 26 22 16 16 15 13 15 13 11 11 10 12 9 6 10 11 9 11 18 18 19 19 19 20 15 14 9 5 7 7 5 5 10 16 16 19 26 29 34 35 34 34 34 36 36
24 22 21 20 20 20 21 22 22 21 19 18 17 16 16 16 16 15 14 12 9 8 7 7 10 10 5 1 3 4 3 6 10 8 4 6 8 3 4 5 9 20 23 22 19 14 15 15 13 14 11 9 10 10 12 12 13 17 14 12 7 16 18 18 17 19 19 12 14 10 6 5 3 6 8 12 17 19 24 29 28 30 33 34 33 33 36 35
24 23 22 21 20 20 20 21 21 19 18 18 16 16 15 15 14 13 12 9 8 7 6 6 9 7 5 5 7 5 8 8 8 7 5 3 5 3 3 6 5 16 22 17 14 12 12 14 15 14 11 8 8 7 8 11 13 17 13 9 7 5 13 18 17 19 16 10 18 15 7 2 3 9 12 17 21 22 25 26 26 28 30 33 33 33 35 35
24 24 22 21 20 20 20 20 20 19 17 16 16 15 14 13 12 11 9 7 7 6 4 5 7 5 6 7 4 5 9 5 4 2 4 1 3 4 1 6 6 10 18 16 13 11 10 13 15 17 17 12 8 7 12 15 13 13 9 4 4 5 5 15 20 22 14 14 27 17 3 4 8 14 16 21 25 24 21 21 25 28 28 30 32 33 33 35
24 23 22 21 20 20 20 20 20 18 16 15 14 12 11 11 9 7 7 6 6 5 3 4 5 5 5 5 2 3 7 1 2 3 4 1 2 4 2 6 8 9 11 14 15 13 11 12 15 16 17 14 12 14 13 12 10 7 5 2 4 3 4 10 18 20 10 15 29 14 1 6 9 16 19 21 26 26 19 19 25 28 28 29 31 33 32 33
23 22 22 21 20 20 20 20 20 18 15 14 12 10 9 8 5 5 5 4 4 5 3 2 4 6 7 8 6 3 7 3 3 1 1 3 2 6 5 5 8 10 10 12 13 13 12 11 13 13 13 13 12 11 6 4 5 4 3 3 4 4 5 8 14 20 13 15 24 12 2 5 7 14 20 21 23 23 18 20 25 25 26 28 29 33 32 31
23 22 20 20 20 20 20 20 20 18 15 13 11 7 7 7 3 4 5 3 3 4 3 2 5 9 8 5 5 8 5 5 2 3 5 6 5 8 7 7 8 10 11 11 12 11 10 10 10 12 11 9 7 5 3 4 4 4 4 4 4 6 6 7 10 20 25 18 15 9 3 2 5 15 24 23 22 21 20 22 25 25 27 28 28 32 31 30
23 21 20 20 20 20 21 20 20 18 14 11 8 6 6 6 4 5 6 3 4 5 5 2 3 9 8 2 3 6 2 4 5 5 4 4 6 7 5 7 9 9 11 10 11 11 9 9 7 7 8 6 3 3 3 4 4 4 4 4 5 7 6 7 8 15 29 23 16 11 4 4 5 15 25 25 25 25 22 23 24 24 27 27 27 30 29 29
23 22 20 19 20 21 20 20 20 17 13 8 8 9 6 6 7 7 6 6 7 6 5 2 2 4 6 4 6 4 2 3 6 4 1 2 4 5 3 6 7 9 11 9 12 12 9 8 6 3 4 4 4 4 5 5 5 5 6 5 6 8 7 9 8 11 28 23 19 14 6 4 5 12 21 22 25 23 18 22 23 22 24 27 28 30 29 29
23 22 20 19 20 21 20 20 18 14 11 7 7 8 6 9 9 4 5 8 6 4 3 4 6 3 6 5 5 4 4 6 6 3 3 3 3 4 4 6 6 10 10 6 8 12 9 5 6 4 3 5 6 7 7 6 8 10 8 4 5 7 6 10 10 10 25 17 15 15 10 6 5 9 18 21 25 21 15 19 22 23 24 25 28 29 29 30
23 22 21 20 20 20 20 19 14 9 9 9 10 10 11 14 7 2 10 13 10 9 10 11 11 9 10 8 5 7 9 9 7 3 3 3 3 5 5 7 8 9 8 4 6 12 11 4 4 5 5 7 9 10 11 10 11 13 10 7 7 7 5 9 9 11 21 13 11 15 15 14 11 11 17 23 25 19 17 18 19 24 25 24 28 29 29 32
23 22 21 20 20 20 18 15 9 7 8 10 13 12 13 14 6 5 14 14 13 14 18 17 12 11 12 8 8 10 9 8 7 3 2 3 3 4 6 7 7 5 5 7 6 10 11 5 5 8 8 10 10 10 12 12 13 13 9 7 8 7 7 10 10 12 18 11 10 13 15 16 15 14 17 21 19 15 20 21 18 22 24 23 26 28 29 31
23 21 21 21 20 19 16 10 7 7 7 8 11 10 9 12 8 8 10 11 14 14 14 13 10 12 11 6 7 7 7 8 7 7 1 3 4 5 6 7 5 3 6 8 6 5 6 5 7 9 9 10 11 10 11 12 12 10 7 6 6 6 7 11 9 10 13 8 10 15 13 12 13 14 17 18 17 17 23 24 22 23 24 24 24 27 29 31
24 22 21 21 20 19 14 6 5 8 9 9 10 9 9 11 10 9 9 9 13 12 11 10 11 11 8 3 3 4 7 9 3 8 1 4 5 7 6 6 5 5 6 6 5 4 4 6 10 12 10 10 11 11 11 10 8 6 6 5 5 8 7 7 5 5 10 8 12 15 10 9 11 11 13 19 21 21 24 27 26 26 27 27 26 26 29 32
25 23 22 22 21 19 13 5 4 8 11 12 10 8 9 11 10 11 9 7 8 10 11 12 11 8 4 2 4 5 6 9 3 3 1 3 3 3 4 5 5 5 5 7 9 8 6 8 13 14 12 12 11 10 10 7 5 6 7 6 6 9 10 8 7 3 5 9 14 14 5 4 10 12 11 16 20 19 24 28 26 26 28 29 28 26 27 33
25 23 22 21 21 19 13 6 4 6 10 10 8 6 8 11 11 11 9 4 5 5 7 9 7 6 4 4 6 5 6 7 3 2 1 2 5 3 4 5 4 4 5 7 9 8 8 12 13 11 11 12 10 9 8 6 5 5 7 8 9 11 14 13 11 9 4 3 12 14 6 2 9 13 12 13 14 15 19 23 24 28 28 28 29 27 27 31
24 23 22 20 19 19 13 5 6 7 8 8 8 9 10 11 12 10 5 3 3 3 6 6 7 6 5 5 6 5 6 3 3 4 1 3 4 3 5 5 3 4 6 6 4 3 5 10 12 10 9 11 10 8 8 7 5 4 5 8 10 12 13 14 11 7 4 1 6 10 6 3 6 9 13 14 15 15 16 16 21 28 30 30 32 32 31 32
22 23 22 18 16 17 13 6 6 7 8 10 10 11 10 10 11 9 2 2 2 5 7 5 5 4 4 5 3 3 3 1 2 1 1 1 3 2 3 5 4 5 6 4 2 2 4 8 9 10 10 7 7 6 7 9 6 3 6 8 9 10 11 13 10 6 5 4 3 6 4 5 4 8 13 15 15 15 15 13 17 25 31 33 35 36 35 34
22 22 21 17 12 12 12 8 5 5 6 11 13 12 9 8 9 7 2 1 0 5 6 4 3 3 3 2 3 5 4 3 3 4 5 1 4 2 3 5 5 6 7 5 3 5 7 6 6 8 9 6 5 5 8 10 7 4 7 10 9 7 9 10 7 4 4 5 5 7 3 3 5 9 12 14 14 13 15 16 16 22 30 35 36 39 39 37
22 21 21 17 10 8 9 5 5 7 7 11 14 12 9 8 8 4 2 1 1 4 4 5 5 3 4 4 6 7 6 5 3 5 6 5 6 5 3 6 7 8 8 6 5 6 9 9 6 5 6 4 6 7 6 8 6 5 8 10 9 7 6 5 4 2 2 3 6 8 5 2 3 7 10 11 12 13 15 16 16 22 31 35 38 40 41 40
21 20 20 16 9 6 8 3 5 9 11 13 13 10 9 8 5 2 2 1 3 4 4 6 5 5 7 6 5 6 3 3 1 3 4 6 8 8 6 8 7 6 6 6 6 7 12 17 14 6 5 6 8 8 8 8 5 3 6 7 7 7 6 4 3 2 3 2 6 8 8 4 3 6 11 12 15 18 16 14 14 20 28 34 38 41 41 41
20 19 17 14 9 6 8 4 5 7 10 13 12 11 10 6 2 1 1 1 2 1 3 5 3 5 5 4 1 6 3 1 2 2 3 3 6 8 5 6 5 3 4 5 6 7 10 13 9 6 8 9 7 6 6 8 5 4 4 4 4 4 4 3 3 4 1 4 5 7 9 6 4 5 10 15 20 22 18 16 17 18 26 33 37 40 41 40
19 16 12 9 7 5 6 7 8 7 8 11 12 12 8 2 2 3 2 1 1 2 0 3 2 1 2 4 2 2 2 1 1 2 2 2 1 3 3 2 2 0 3 3 3 5 7 8 5 7 11 7 4 5 4 4 4 5 5 3 2 2 2 2 1 1 2 4 5 7 8 6 5 5 7 13 17 19 18 20 24 25 30 36 39 41 42 42
18 12 7 5 5 6 9 10 6 4 9 12 12 10 5 1 1 1 2 2 1 2 2 3 2 4 5 4 2 5 3 0 2 2 4 4 4 4 3 6 7 4 1 3 5 4 3 6 7 5 5 4 4 4 2 2 3 4 3 2 2 2 2 2 2 2 3 4 6 9 8 4 3 5 6 8 12 22 26 27 32 36 38 40 42 43 43 44
16 7 4 4 4 7 11 12 10 9 9 12 10 6 3 2 1 6 8 6 3 2 3 4 1 2 3 4 2 4 2 2 1 2 3 3 4 3 4 11 13 8 4 4 4 4 4 5 4 2 4 6 6 6 5 4 3 4 2 2 3 3 2 3 3 4 4 4 7 9 6 2 3 5 7 8 7 23 35 35 36 39 40 41 41 41 41 43
14 3 1 4 5 7 10 9 11 10 8 11 7 3 2 1 3 6 6 5 6 7 7 4 5 3 4 4 5 6 1 1 2 2 1 2 3 3 4 7 11 10 5 3 3 4 6 6 4 8 13 11 6 5 8 6 4 3 3 4 5 4 3 3 3 4 4 3 4 6 5 4 5 6 7 10 10 13 30 34 32 32 34 35 36 37 39 41
12 4 4 7 8 9 9 7 9 7 6 8 4 2 1 2 4 5 5 7 6 6 8 6 4 2 3 2 6 5 3 1 3 3 1 1 5 9 7 7 10 10 7 3 2 4 5 7 8 15 17 12 13 14 8 8 4 2 3 5 6 5 4 2 4 6 4 3 3 4 5 4 4 6 8 10 11 8 18 26 25 28 32 33 34 38 39 40
11 7 4 8 9 8 7 5 4 2 5 5 2 3 2 4 7 7 6 8 7 6 7 5 2 2 3 1 3 4 4 1 2 1 2 1 5 10 8 9 13 12 10 7 2 3 5 8 10 11 13 17 23 27 16 7 9 3 4 4 3 3 3 1 1 3 3 3 3 4 6 4 5 5 8 11 12 9 15 22 22 26 32 32 34 39 41 41
10 9 5 6 7 5 4 2 2 2 6 4 3 5 2 6 9 10 8 8 7 6 5 3 3 4 4 3 1 2 0 2 1 1 2 3 4 10 9 8 14 16 14 11 4 3 5 6 10 7 8 17 21 18 15 5 11 11 7 5 0 1 3 3 1 2 3 3 3 6 7 4 5 5 9 13 13 10 15 23 22 22 28 31 35 40 42 42
10 11 5 3 5 5 6 2 2 3 6 3 3 3 3 6 9 12 11 8 6 5 4 5 4 3 5 5 4 5 5 4 4 3 3 4 2 9 12 7 10 15 16 11 4 2 3 1 7 7 8 13 13 5 5 8 2 10 9 5 2 1 2 3 2 2 3 2 2 5 6 4 4 6 10 15 13 9 12 22 22 21 28 34 35 38 40 40
9 8 3 3 4 6 5 1 0 5 4 1 3 3 6 5 10 15 11 7 7 4 3 6 6 4 6 6 5 7 8 6 5 3 3 6 4 6 13 10 7 12 14 11 6 4 3 0 5 9 10 9 7 4 4 10 9 5 5 5 4 3 2 2 3 4 4 3 2 3 4 5 5 5 9 13 14 11 11 20 21 22 33 39 39 41 42 41
9 5 1 5 4 2 3 5 4 5 3 1 3 5 6 4 7 13 9 5 7 6 4 5 5 5 6 7 7 8 7 6 6 5 3 6 7 4 10 14 11 10 8 7 6 6 3 2 4 8 8 6 8 11 12 12 11 9 6 6 5 4 3 3 4 4 4 4 2 3 4 5 6 3 2 5 12 13 11 18 21 25 37 42 40 42 44 42
9 4 3 5 3 2 4 7 3 3 1 3 5 7 7 4 9 15 12 7 7 6 5 6 6 7 6 6 7 8 6 5 5 6 4 8 11 6 10 17 15 12 8 4 5 8 5 2 4 7 6 9 15 18 17 14 12 11 8 6 6 5 3 3 4 4 4 5 5 4 3 7 8 5 9 11 9 14 12 14 18 25 37 40 39 42 43 43
8 7 3 5 5 5 6 4 2 2 2 3 5 9 10 9 10 12 13 12 9 7 7 7 9 9 8 7 8 7 7 5 4 7 5 6 10 10 13 18 16 12 9 4 5 11 8 1 3 6 6 9 15 16 15 11 8 7 6 6 7 8 7 2 2 5 3 1 2 4 4 7 9 7 11 12 3 13 15 20 26 27 31 34 35 38 40 41
13 11 4 3 6 7 4 2 3 2 4 4 4 9 9 10 10 9 10 12 10 7 6 7 9 8 7 8 8 6 6 4 5 8 7 4 7 13 18 20 16 11 7 5 6 9 6 2 3 5 5 6 9 9 7 7 9 6 7 10 10 12 13 7 3 5 3 5 7 1 4 5 7 11 14 15 12 6 3 19 28 26 27 34 37 38 41 42
13 10 7 6 8 6 4 5 6 4 5 6 6 6 8 7 10 10 9 11 12 9 6 6 10 10 7 7 8 7 5 4 5 6 7 7 8 13 19 18 16 12 9 9 11 8 3 2 2 2 3 4 5 4 4 6 8 7 9 13 13 13 14 8 3 3 2 6 9 3 2 6 8 13 18 19 20 19 16 17 17 13 7 22 37 40 39 40
7 6 8 9 13 14 10 11 12 8 4 4 4 5 7 8 8 12 10 9 11 11 8 7 10 11 8 9 9 8 8 8 7 5 5 7 6 10 16 16 13 12 12 11 11 6 1 2 2 3 5 6 7 8 9 10 10 10 13 17 15 12 12 8 3 2 4 7 6 3 3 11 11 12 17 17 18 19 18 20 23 25 23 6 27 46 42 41
6 3 6 5 9 14 13 13 14 9 8 8 3 5 8 7 7 10 7 5 9 10 8 6 7 6 6 8 6 5 8 9 8 7 6 6 6 9 14 13 9 9 9 10 9 4 1 3 5 7 9 10 12 14 16 14 13 14 15 16 15 12 10 9 5 4 6 6 5 5 9 13 13 9 13 13 14 15 14 17 22 25 35 33 13 28 23 18
6 5 10 8 3 5 7 9 10 9 11 11 5 6 9 8 7 8 5 7 10 10 5 3 6 7 7 6 3 2 6 6 5 5 5 4 5 7 8 8 8 7 7 8 8 4 2 4 6 8 11 12 13 15 15 14 13 15 14 14 15 13 9 10 8 4 4 4 6 9 10 11 13 8 10 11 11 13 14 19 25 28 35 40 33 27 28 31
10 7 12 14 7 5 6 7 7 10 9 7 5 7 9 7 9 9 7 7 7 9 7 4 6 9 8 7 4 2 3 3 4 5 4 3 3 4 4 4 5 8 9 6 5 5 3 3 7 10 11 12 13 14 15 14 13 15 14 13 14 13 11 13 13 7 5 8 10 10 11 10 9 6 3 8 14 18 20 23 29 32 32 33 34 34 34 33
12 8 10 14 9 8 11 8 5 8 6 6 4 3 6 8 10 9 8 7 7 7 7 6 7 8 6 6 5 3 3 3 4 5 5 5 3 2 2 2 2 5 5 4 3 4 2 3 9 9 8 9 12 13 13 12 13 14 14 12 12 12 12 13 12 6 5 9 9 8 10 8 5 7 6 9 20 24 23 24 26 30 31 30 30 31 30 30
9 6 7 10 6 6 11 7 6 6 4 5 5 3 6 8 10 8 7 7 7 6 6 7 7 7 5 5 5 6 6 6 7 8 9 7 6 4 2 3 4 3 1 2 2 1 3 2 6 6 5 6 10 13 13 13 14 14 13 12 11 11 11 10 8 6 6 9 9 8 8 4 5 12 11 9 18 20 20 22 25 27 30 29 29 29 29 29
7 5 7 9 4 2 6 5 8 6 4 5 6 6 7 7 9 8 5 4 6 6 8 9 7 5 5 5 5 7 8 10 12 13 13 13 12 11 10 10 9 6 3 2 1 2 3 1 2 3 5 6 9 13 14 11 10 9 8 8 8 9 11 10 6 8 10 9 6 5 3 2 6 12 13 11 13 15 18 23 25 26 29 28 28 28 28 27
Wind_Direction
354 353 352 351 351 351 350 348 347 345 343 343 342 341 342 341 341 338 334 333 332 333 333 332 330 331 332 325 321 326 334 328 304 274 265 217 187 190 192 192 199 195 184 181 169 167 174 174 176 176 198 212 209 221 231 213 184 169 134 197 222 243 226 193 199 58 86 115 194 231 211 188 239 227 167 163 165 149 136 132 137 140 145 146 144 147 148 149
352 352 350 350 349 349 348 347 345 344 341 340 338 338 338 339 339 336 332 330 330 332 330 328 326 328 328 325 322 323 330 328 305 277 261 206 207 202 207 205 198 196 191 185 172 171 181 186 192 194 211 219 210 215 230 219 190 179 187 181 223 230 189 173 177 53 95 140 179 187 220 225 235 228 189 175 160 155 148 134 146 153 146 144 147 149 151 151
352 351 350 349 348 348 347 346 344 341 339 337 335 335 334 335 335 333 331 330 330 329 327 325 324 326 326 324 322 325 329 328 319 306 62 43 316 212 214 218 204 198 194 190 176 170 183 194 195 200 216 221 208 211 221 212 197 202 204 216 240 211 158 135 90 1 116 151 184 154 186 233 256 242 230 198 158 158 161 146 161 158 145 146 150 152 153 153
352 350 349 348 347 347 346 345 343 340 337 334 333 331 330 330 330 329 330 330 329 327 326 323 323 326 325 323 323 328 330 336 17 7 11 7 4 15 237 213 207 202 192 188 176 170 190 202 195 201 213 219 213 215 223 206 189 195 201 233 222 166 144 124 92 338 110 144 158 116 108 285 310 256 260 244 168 167 166 159 163 150 146 150 151 155 157 154
352 350 349 348 347 346 346 344 342 339 336 332 331 328 327 327 325 325 326 328 327 326 325 322 325 326 323 322 325 330 335 6 119 240 338 349 354 1 334 207 206 200 189 184 178 177 200 216 204 201 213 222 220 218 229 216 194 180 206 224 206 156 164 151 129 317 230 124 126 119 118 212 257 239 232 242 238 185 156 159 161 151 149 152 153 157 158 156
351 350 348 348 346 346 345 343 341 338 335 332 329 326 324 323 322 321 322 326 325 325 324 323 328 324 322 323 326 331 336 46 137 259 328 336 334 327 299 239 211 197 185 182 184 188 204 226 217 203 209 228 239 232 231 219 205 207 214 219 207 177 182 170 147 156 176 116 125 155 157 171 186 208 200 237 277 192 149 160 159 153 152 153 156 158 159 158
350 349 348 347 345 345 344 343 340 337 334 330 327 324 322 321 319 318 320 324 323 324 324 325 328 321 322 325 328 327 304 323 17 310 322 319 326 306 259 251 219 195 184 181 187 196 208 235 228 209 202 217 242 244 246 231 213 218 204 195 199 192 191 175 154 148 152 136 149 164 157 164 158 169 195 239 257 180 157 166 154 152 154 154 158 160 160 160
348 347 346 345 343 343 343 342 339 336 333 328 325 323 322 320 317 317 319 321 322 323 324 325 324 318 322 326 337 327 293 300 347 334 328 316 325 308 246 248 221 192 183 181 184 188 207 240 228 213 206 214 236 235 245 245 221 223 208 185 192 195 189 165 149 140 138 142 149 148 155 173 154 162 196 213 189 171 166 162 152 152 155 156 161 162 161 161
345 344 345 344 342 341 341 341 338 334 331 326 324 322 321 319 316 317 318 319 320 320 325 321 317 319 322 328 359 328 286 356 347 330 333 322 324 313 254 237 206 189 181 180 182 187 216 241 223 215 225 232 242 244 253 254 222 232 223 198 181 183 184 163 152 142 136 145 153 148 156 175 173 173 195 196 177 174 167 158 154 153 156 160 163 164 162 162
340 341 342 342 340 339 340 339 337 332 328 325 323 321 320 318 316 316 315 317 318 321 325 315 318 325 322 356 16 314 313 14 310 303 326 318 316 304 235 189 185 184 180 181 184 199 225 236 221 221 240 254 257 265 276 277 292 286 269 251 188 175 181 166 155 146 138 146 163 163 144 158 203 224 228 200 179 175 159 151 156 156 158 163 165 166 164 165
337 338 338 340 338 338 339 338 336 330 324 323 321 321 321 319 317 314 313 316 320 324 317 310 326 330 327 352 265 264 347 335 301 286 277 294 316 315 176 152 175 181 179 184 191 209 232 239 234 229 232 253 265 271 281 280 296 299 293 297 238 176 173 161 147 146 139 145 164 146 95 121 192 244 236 201 178 171 157 153 160 160 161 165 168 168 165 168
335 335 335 337 337 337 339 338 337 329 322 320 319 322 321 320 317 313 315 318 322 319 304 318 334 338 336 301 253 274 334 324 304 277 225 267 318 324 156 147 191 187 177 187 202 211 237 247 248 250 247 251 254 256 294 292 284 283 276 289 282 197 172 160 148 155 149 145 154 127 73 108 248 241 207 181 174 166 157 163 168 165 166 167 170 170 167 170
334 334 334 335 336 337 338 339 338 329 321 318 319 321 320 321 320 317 322 320 322 310 289 329 343 341 323 297 255 333 333 294 303 306 161 162 260 276 229 165 222 203 179 193 210 212 234 249 253 260 263 267 272 281 310 304 279 266 256 241 266 291 196 164 152 161 155 142 154 141 90 192 238 232 185 165 174 167 163 177 175 170 170 168 170 171 171 171
333 333 332 333 334 336 338 340 339 331 323 318 318 318 318 323 322 325 329 321 321 294 278 346 358 352 313 278 203 2 355 265 268 32 106 9 226 228 251 181 217 222 199 212 224 239 251 251 253 262 269 271 287 300 310 308 293 273 256 227 222 255 242 186 162 162 148 146 157 145 76 189 211 206 171 162 174 170 173 182 172 170 171 170 170 172 175 174
333 332 331 332 333 335 338 341 340 333 326 320 317 315 322 328 329 340 335 317 312 280 276 346 4 349 302 279 243 241 360 6 219 355 234 298 278 212 213 188 209 217 222 233 237 258 271 259 241 244 265 270 281 294 301 303 297 284 254 248 218 202 245 233 179 160 144 156 162 139 78 207 202 177 163 168 172 171 181 177 169 171 171 173 171 171 179 177
335 334 334 333 334 337 340 342 340 335 330 324 314 310 326 331 321 346 343 316 315 296 283 328 3 342 303 284 243 228 319 347 261 309 280 280 263 231 219 194 204 213 221 234 240 253 268 273 251 234 244 259 267 263 282 295 268 256 230 226 222 207 224 240 209 168 147 148 172 167 121 187 193 164 163 170 169 175 186 177 172 173 171 175 172 171 180 178
337 337 338 336 336 339 341 344 341 336 334 329 317 303 316 334 321 334 342 308 303 307 295 295 358 317 278 217 271 246 280 337 313 312 292 284 247 244 248 198 196 211 217 227 237 239 244 257 260 242 230 236 259 228 243 256 246 257 223 223 246 236 223 224 237 172 147 146 178 189 145 163 191 163 167 174 173 180 183 172 173 173 170 175 173 173 181 179
340 340 341 338 338 340 343 345 341 337 339 338 331 318 313 337 320 309 323 308 295 301 299 231 159 306 272 235 285 296 30 320 311 319 290 298 238 236 268 214 197 206 213 220 225 223 222 229 237 244 215 217 243 224 216 214 229 246 214 203 228 242 248 241 256 159 149 154 171 171 136 180 208 162 171 179 177 182 176 165 171 173 172 175 174 176 182 181
344 344 344 341 340 341 344 346 343 341 348 359 347 334 348 346 320 298 342 324 294 285 301 223 196 256 291 279 285 300 321 289 293 308 264 276 233 212 237 236 214 202 204 202 202 204 203 211 222 230 218 209 214 220 236 238 238 253 251 242 228 237 239 241 261 152 145 151 166 165 146 172 222 175 174 178 177 178 168 168 172 172 176 175 173 179 182 182
348 346 345 342 341 342 344 347 349 351 359 19 21 16 21 3 340 25 352 318 275 268 287 267 236 258 291 314 320 301 302 279 265 266 214 233 230 208 218 232 222 208 209 199 181 193 200 214 213 219 229 220 216 218 236 256 261 270 280 288 280 274 252 233 242 152 142 148 170 168 149 160 196 190 173 172 175 173 164 173 176 170 176 176 174 181 182 182
349 347 344 342 341 343 346 353 10 16 0 10 18 20 21 11 357 341 340 315 275 270 278 271 256 274 292 313 315 301 301 274 243 182 157 234 245 209 193 212 222 207 211 233 224 194 196 225 225 218 229 233 234 223 222 239 257 270 279 287 289 285 282 261 239 164 149 153 165 166 152 160 183 179 167 167 171 175 171 174 176 169 174 180 180 183 183 180
347 346 342 339 339 343 347 1 35 31 15 9 7 12 16 10 351 321 327 308 284 272 268 265 256 268 272 276 299 291 288 274 215 165 203 267 222 209 184 189 216 202 198 224 245 207 192 226 237 233 233 230 241 244 234 229 237 256 269 278 285 281 288 280 255 160 149 149 154 167 162 159 169 162 163 167 169 179 179 176 175 171 173 183 184 183 182 178
343 343 341 338 337 342 343 358 30 13 9 1 349 357 3 354 341 324 314 293 288 280 259 240 234 251 249 226 294 267 275 290 191 142 236 272 213 216 202 196 221 220 204 201 215 229 216 210 218 231 241 236 235 239 246 246 235 239 249 258 269 272 278 280 283 148 160 169 157 165 163 148 157 161 169 173 171 177 180 179 179 177 178 184 184 183 183 177
340 340 341 338 335 340 340 327 344 341 332 329 327 342 351 344 338 336 325 282 278 282 252 226 222 242 248 242 264 247 266 290 302 112 210 280 270 244 238 247 244 231 226 214 212 224 243 234 218 214 222 237 244 234 233 247 250 233 234 244 259 269 272 274 302 312 197 180 158 152 136 139 163 169 173 172 172 176 176 176 180 183 185 186 185 185 184 179
337 337 339 338 333 338 340 316 299 314 317 327 339 344 348 342 329 331 333 285 258 258 221 200 203 224 239 247 247 253 287 283 273 93 124 304 324 319 318 305 263 245 252 236 225 222 237 251 246 228 211 218 237 244 232 224 244 252 229 224 238 263 274 279 301 320 318 181 159 149 128 202 186 171 167 167 170 176 175 174 175 181 186 188 189 188 182 181
335 335 336 338 333 333 344 332 284 307 344 7 360 346 350 341 328 334 340 281 259 183 172 176 192 210 208 200 220 257 304 295 120 76 13 283 304 313 322 311 262 251 261 257 260 239 221 236 246 251 232 212 214 234 246 232 226 249 242 227 224 242 266 279 294 303 310 305 177 170 155 177 202 182 173 172 172 175 181 178 170 175 183 188 193 192 185 185
334 332 333 339 336 330 341 342 284 298 355 12 353 341 343 333 336 351 341 255 247 156 152 167 176 170 160 163 204 256 323 343 167 166 189 274 324 318 286 290 283 272 275 288 287 255 243 233 235 252 254 236 215 209 228 238 236 228 249 257 239 230 246 263 275 269 267 301 258 228 195 137 181 204 188 179 176 175 182 181 171 176 183 187 193 193 190 191
333 330 330 339 341 325 327 337 327 310 341 356 342 332 335 331 336 344 319 304 184 156 141 146 151 131 149 188 253 253 274 273 240 189 170 273 311 230 215 274 287 291 301 315 288 273 269 234 211 242 253 250 242 225 208 219 236 239 248 267 265 248 242 247 257 258 267 293 290 274 260 142 185 202 188 181 177 178 185 183 177 179 183 186 191 192 193 194
334 329 327 336 341 314 306 329 11 358 352 345 329 324 334 331 324 315 268 324 144 164 149 141 136 146 203 239 232 230 255 252 212 142 174 247 261 217 249 286 294 307 307 301 281 285 293 293 309 290 263 252 253 262 246 223 228 237 247 267 280 282 277 271 271 290 314 269 262 276 274 237 214 192 176 177 179 185 191 186 182 182 182 186 188 191 193 192
333 327 326 331 338 306 284 303 24 7 354 331 317 328 337 319 300 248 232 234 144 162 172 139 129 180 216 245 203 187 249 261 141 123 202 232 211 204 250 270 273 299 296 292 290 286 292 299 307 298 267 270 256 255 261 257 268 270 250 258 275 291 302 303 311 14 21 284 263 276 276 278 263 190 170 177 187 189 189 185 182 181 182 186 188 190 191 191
332 328 327 327 335 311 276 292 341 342 340 324 322 337 327 301 259 235 241 124 104 179 177 123 111 189 212 292 224 175 214 244 79 63 252 233 185 192 230 245 237 280 291 286 284 275 278 287 293 277 279 291 281 262 248 248 269 290 261 238 248 279 300 309 355 34 20 273 285 291 282 276 266 211 178 186 193 186 180 180 179 180 183 186 189 190 191 191
334 332 335 334 351 348 314 313 292 294 345 344 336 331 313 265 187 242 246 105 60 300 286 89 59 63 31 333 338 109 120 152 63 16 315 308 270 225 234 216 173 192 283 278 289 275 257 254 255 276 284 289 293 298 290 252 252 255 245 212 183 230 267 272 11 43 233 255 282 296 296 274 254 253 202 192 194 187 186 183 178 180 182 185 189 190 190 190
339 341 2 13 23 27 11 357 325 336 6 349 327 313 297 231 215 296 347 27 90 265 330 58 55 24 4 323 4 50 46 241 218 26 6 354 342 317 351 24 36 44 322 333 337 317 281 261 240 238 271 258 240 257 289 282 245 244 237 156 155 196 217 234 185 190 241 259 258 268 289 280 247 281 248 211 190 182 188 189 182 183 184 184 188 188 188 189
342 351 48 38 19 28 22 14 22 34 3 334 318 300 276 245 345 36 30 24 22 345 46 59 354 336 290 263 72 61 8 325 82 58 9 335 311 309 36 34 31 31 360 1 353 326 333 305 240 152 353 305 259 229 237 274 250 232 223 169 216 225 202 230 182 165 205 231 223 227 248 214 183 267 269 269 223 174 178 188 186 185 186 184 185 186 186 189
343 332 62 15 10 21 22 12 23 33 343 319 308 278 278 287 3 27 21 10 1 2 23 355 287 278 245 221 96 80 83 18 63 61 328 291 331 1 64 42 32 35 19 7 359 339 331 304 313 355 333 313 306 264 240 263 285 245 210 205 222 221 219 249 240 225 220 230 229 213 215 190 189 240 254 266 266 183 172 181 183 181 183 181 180 184 187 190
352 322 291 340 346 353 10 10 15 21 317 306 300 268 330 28 30 29 2 358 357 343 339 314 279 272 269 196 118 119 162 163 67 69 292 294 27 27 53 55 34 39 44 25 311 0 352 288 315 344 326 316 340 330 276 222 242 294 232 216 212 212 225 241 264 279 279 269 264 231 224 212 194 240 250 246 257 218 167 171 176 175 176 176 180 185 188 189
8 5 346 5 4 355 9 11 9 334 275 286 300 296 322 34 30 34 13 349 342 326 318 326 3 343 327 41 117 131 164 181 51 47 260 178 44 20 37 59 42 38 38 27 341 34 16 289 304 343 326 323 338 335 317 226 195 226 281 244 198 209 258 264 263 281 273 257 254 251 254 223 178 216 240 233 239 223 170 165 172 171 172 177 182 185 188 189
2 2 359 29 31 15 357 1 121 218 258 259 266 284 334 54 34 28 17 351 345 334 319 359 2 321 350 13 18 55 206 251 12 321 329 77 45 13 21 42 39 34 23 16 7 12 14 304 304 337 333 328 335 333 326 292 192 203 253 284 283 166 252 249 243 247 255 262 257 269 274 235 190 194 206 216 231 225 176 167 171 170 173 180 184 186 188 189
355 348 332 31 31 354 344 40 109 253 258 261 281 290 53 69 56 41 21 1 3 342 332 20 7 333 21 7 328 3 352 356 43 13 12 64 54 17 23 25 28 24 11 6 4 327 8 296 287 324 357 338 327 305 332 350 255 212 238 281 306 275 233 221 219 219 236 254 246 268 277 256 227 196 190 204 219 223 182 169 173 172 174 181 184 187 188 186
353 329 308 7 341 318 323 12 299 274 260 302 316 27 44 42 57 49 26 2 20 20 357 10 356 352 17 351 336 18 5 2 42 24 10 62 84 31 22 23 27 17 359 353 10 360 358 152 272 315 348 339 304 277 351 357 339 289 276 294 283 274 296 291 254 221 218 228 236 271 274 268 262 220 194 194 198 213 191 170 174 175 175 181 184 185 186 185
346 297 293 347 322 284 287 265 239 238 235 4 23 46 27 357 34 31 20 21 39 49 30 3 354 1 13 0 7 32 11 347 19 20 358 48 67 44 19 22 22 17 357 345 25 32 357 340 299 309 331 319 289 300 320 331 325 313 308 305 289 263 259 274 267 236 216 211 216 273 277 263 271 293 296 220 200 208 193 166 173 179 177 182 184 184 186 185
351 325 25 11 6 73 294 277 239 196 211 41 61 44 6 356 27 17 14 29 39 39 18 8 18 20 25 17 11 29 25 352 11 12 359 50 54 43 30 28 21 15 7 358 31 19 343 297 301 299 304 299 290 295 304 307 302 295 292 309 318 304 278 259 285 292 254 209 200 235 282 273 274 316 322 292 211 189 191 165 167 178 178 181 182 182 184 185
339 321 359 41 12 328 290 293 1 62 66 56 78 56 24 24 39 23 13 15 20 26 17 22 33 30 24 9 1 26 30 6 15 7 352 59 57 33 28 31 25 17 10 2 15 3 346 318 327 315 304 297 290 291 295 300 308 303 306 342 351 347 350 334 331 349 321 252 195 209 225 266 287 330 319 304 182 171 186 164 161 174 176 175 178 180 182 185
338 320 308 45 3 318 297 336 347 53 68 31 64 83 62 34 35 35 21 17 22 18 10 25 33 28 20 4 4 30 30 5 14 8 352 12 44 35 30 27 22 21 25 20 8 360 351 3 7 337 318 317 308 302 310 333 353 344 319 337 348 350 352 352 19 19 356 2 6 320 206 252 313 5 356 353 22 27 141 144 154 167 172 174 176 181 188 189
346 330 330 11 16 15 58 38 14 41 49 23 30 82 101 73 47 46 34 25 33 24 6 25 24 17 24 24 15 12 16 20 6 358 359 352 11 31 25 19 15 6 1 1 353 350 345 340 7 338 298 309 309 314 337 338 338 325 311 325 333 343 351 349 2 15 341 350 352 321 247 298 329 16 13 11 23 20 27 66 86 85 131 189 183 180 188 190
336 338 350 358 12 27 45 42 41 49 27 19 9 10 62 87 65 49 36 26 38 27 4 23 25 13 22 35 23 360 0 14 2 347 2 358 2 9 358 358 3 346 334 339 336 331 327 286 273 246 255 270 276 289 302 302 305 308 312 319 321 334 350 340 325 14 345 333 320 266 338 330 331 19 20 11 26 30 28 34 39 41 29 356 192 186 188 190
322 4 18 346 356 17 25 26 39 51 25 23 358 338 28 66 59 47 37 26 50 38 8 30 44 20 18 33 31 359 353 358 349 344 1 10 360 342 338 338 333 325 330 331 318 306 262 269 265 252 254 263 270 278 287 291 296 300 303 309 310 320 336 321 309 359 348 332 307 309 349 336 318 1 25 15 25 32 28 26 25 32 36 40 108 168 166 157
353 16 22 10 341 14 21 11 25 49 38 27 15 359 21 48 50 41 16 6 45 57 29 32 56 34 19 24 28 17 3 347 333 349 9 15 350 329 333 324 303 322 345 321 309 318 285 273 285 278 272 271 272 276 283 287 290 289 291 301 307 313 321 307 300 329 336 298 278 299 324 320 301 324 22 23 26 31 30 32 31 34 42 48 62 77 68 63
15 9 11 14 16 17 3 352 27 63 60 31 21 16 14 30 36 24 4 354 27 54 36 0 24 25 9 3 5 56 46 338 320 348 347 337 332 313 317 309 313 358 2 321 328 14 17 301 298 294 293 293 287 281 279 282 285 286 289 295 301 308 310 298 290 293 302 285 278 299 319 312 291 287 348 25 33 38 36 33 35 37 40 44 51 57 56 55
22 11 1 359 4 3 340 331 36 71 60 22 21 20 10 33 35 11 3 10 6 27 34 8 6 14 359 347 347 358 31 341 308 316 315 315 325 298 308 309 309 357 354 303 332 43 90 309 307 302 302 305 302 292 280 279 281 281 284 282 281 288 287 281 280 283 292 286 288 327 335 319 316 313 315 30 41 42 40 33 33 37 37 38 43 46 48 47
27 26 4 341 334 342 331 342 58 68 57 30 21 21 19 38 42 7 354 22 6 353 22 18 7 3 338 324 337 351 357 332 302 307 312 308 305 295 291 283 274 285 278 264 295 105 135 305 313 310 298 292 301 302 294 290 284 276 276 276 271 275 277 275 288 305 298 295 312 351 348 316 334 332 329 30 49 49 47 34 28 33 35 35 37 37 39 41
45 62 21 346 315 319 336 19 56 50 69 57 36 43 34 26 37 24 358 11 360 353 19 15 357 345 325 331 9 5 333 309 300 305 305 296 292 288 280 277 282 292 297 282 256 176 178 238 296 309 299 289 294 299 301 302 293 275 269 273 267 266 270 272 288 297 287 285 308 351 9 359 360 348 342 10 42 52 54 46 33 29 31 33 33 31 30 33
Height
1521 1520 1518 1516 1515 1513 1511 1510 1509 1507 1506 1505 1504 1502 1501 1500 1499 1498 1496 1495 1494 1493 1492 1490 1489 1488 1487 1486 1484 1484 1483 1482 1481 1480 1480 1480 1481 1482 1483 1484 1486 1488 1489 1491 1492 1494 1495 1496 1498 1498 1500 1502 1502 1501 1501 1501 1501 1503 1507 1512 1516 1513 1509 1504 1503 1505 1508 1512 1509 1505 1504 1505 1505 1503 1502 1505 1506 1503 1505 1510 1511 1512 1516 1519 1522 1525 1528 1530
1521 1519 1518 1516 1514 1513 1511 1509 1508 1506 1505 1504 1503 1502 1500 1499 1498 1497 1495 1494 1493 1492 1491 1489 1488 1487 1486 1485 1484 1482 1481 1481 1480 1479 1480 1480 1480 1481 1482 1484 1485 1487 1488 1490 1491 1492 1495 1496 1497 1499 1500 1500 1500 1500 1500 1499 1499 1501 1505 1510 1511 1506 1501 1497 1499 1502 1504 1508 1508 1507 1507 1507 1507 1505 1502 1504 1505 1503 1505 1510 1512 1513 1516 1520 1523 1526 1528 1530
1521 1519 1517 1516 1514 1512 1511 1509 1507 1506 1504 1503 1502 1501 1499 1498 1497 1496 1494 1493 1492 1491 1490 1489 1487 1486 1485 1484 1483 1482 1480 1479 1479 1478 1479 1480 1481 1480 1481 1483 1484 1486 1487 1489 1490 1492 1495 1496 1497 1499 1499 1499 1498 1498 1498 1497 1497 1497 1501 1508 1505 1497 1495 1495 1497 1500 1503 1505 1504 1507 1509 1508 1507 1510 1508 1505 1503 1503 1504 1507 1509 1511 1514 1518 1522 1525 1528 1530
1520 1519 1517 1515 1513 1512 1510 1508 1507 1505 1503 1502 1501 1500 1498 1497 1496 1494 1493 1492 1491 1490 1489 1488 1487 1486 1485 1483 1482 1481 1479 1479 1478 1478 1479 1479 1479 1479 1480 1482 1483 1485 1486 1488 1490 1491 1494 1496 1497 1498 1497 1497 1496 1496 1495 1494 1495 1494 1498 1502 1496 1491 1494 1495 1495 1499 1503 1505 1505 1507 1510 1509 1510 1514 1513 1508 1507 1506 1504 1505 1506 1508 1511 1516 1521 1525 1527 1530
1519 1518 1516 1514 1513 1511 1509 1508 1506 1504 1503 1501 1500 1498 1497 1496 1495 1493 1492 1491 1490 1489 1488 1487 1486 1485 1484 1483 1482 1481 1480 1481 1479 1477 1478 1478 1478 1479 1480 1481 1482 1484 1485 1488 1490 1490 1492 1494 1496 1496 1496 1494 1494 1494 1492 1490 1490 1492 1492 1490 1488 1490 1494 1494 1495 1499 1502 1504 1507 1508 1510 1511 1513 1515 1512 1510 1510 1506 1503 1505 1507 1508 1511 1514 1518 1523 1526 1529
1518 1517 1515 1513 1512 1510 1508 1507 1505 1503 1502 1500 1499 1497 1496 1495 1493 1492 1491 1490 1489 1488 1487 1486 1485 1484 1483 1482 1481 1480 1481 1481 1479 1478 1479 1478 1479 1479 1480 1481 1481 1483 1485 1487 1488 1489 1490 1491 1492 1493 1493 1493 1492 1492 1489 1486 1487 1491 1489 1485 1487 1489 1490 1491 1493 1498 1500 1502 1504 1506 1508 1510 1513 1513 1508 1507 1507 1504 1504 1506 1507 1509 1512 1515 1519 1522 1525 1528
1518 1516 1514 1512 1511 1509 1507 1506 1504 1502 1501 1499 1498 1496 1495 1493 1492 1491 1490 1489 1488 1487 1486 1485 1484 1483 1483 1482 1481 1480 1480 1479 1478 1478 1478 1478 1479 1478 1479 1480 1480 1482 1483 1485 1487 1488 1489 1490 1490 1490 1491 1492 1491 1488 1486 1483 1482 1486 1487 1483 1483 1485 1486 1488 1491 1495 1498 1501 1501 1503 1506 1507 1509 1508 1505 1507 1506 1504 1505 1506 1507 1510 1514 1517 1520 1523 1525 1528
1517 1515 1513 1512 1510 1508 1507 1505 1503 1501 1499 1498 1497 1495 1494 1492 1491 1490 1489 1488 1487 1486 1485 1484 1484 1483 1482 1482 1481 1480 1479 1478 1478 1478 1477 1477 1478 1477 1478 1478 1479 1480 1481 1483 1485 1487 1488 1489 1488 1488 1490 1490 1488 1486 1483 1482 1481 1482 1483 1479 1478 1480 1483 1486 1488 1493 1496 1498 1501 1503 1504 1505 1506 1505 1504 1506 1505 1504 1505 1506 1508 1511 1514 1518 1521 1524 1526 1529
1516 1514 1512 1511 1509 1507 1506 1504 1502 1500 1498 1497 1496 1494 1493 1491 1490 1489 1488 1487 1486 1486 1485 1484 1483 1482 1482 1481 1481 1481 1479 1478 1478 1477 1476 1476 1476 1476 1476 1476 1477 1479 1481 1483 1484 1486 1488 1487 1487 1487 1487 1486 1485 1483 1480 1483 1483 1477 1476 1475 1476 1479 1481 1484 1486 1489 1493 1495 1499 1502 1504 1506 1507 1506 1505 1504 1503 1505 1506 1507 1509 1511 1515 1518 1521 1524 1526 1529
1515 1513 1512 1510 1508 1507 1505 1503 1501 1499 1497 1496 1494 1493 1492 1490 1489 1488 1487 1486 1486 1485 1484 1483 1482 1481 1481 1481 1481 1481 1478 1478 1478 1478 1477 1475 1475 1475 1475 1475 1476 1478 1480 1482 1484 1485 1486 1486 1486 1486 1486 1484 1483 1482 1478 1481 1480 1473 1472 1472 1473 1476 1477 1480 1483 1485 1490 1494 1497 1501 1504 1506 1508 1509 1507 1503 1502 1504 1505 1507 1509 1512 1515 1518 1521 1523 1526 1529
1514 1512 1511 1509 1507 1506 1504 1502 1500 1498 1496 1494 1493 1492 1490 1489 1488 1487 1486 1485 1485 1484 1483 1483 1482 1481 1481 1480 1481 1480 1477 1477 1477 1477 1477 1476 1475 1475 1475 1475 1476 1478 1480 1482 1483 1484 1484 1485 1485 1486 1486 1484 1482 1481 1478 1477 1476 1472 1472 1473 1472 1473 1476 1479 1481 1484 1487 1494 1498 1499 1503 1505 1509 1511 1506 1501 1502 1503 1504 1507 1509 1512 1514 1517 1520 1523 1526 1529
1514 1512 1510 1508 1506 1505 1503 1501 1499 1497 1495 1493 1492 1491 1489 1488 1487 1486 1485 1484 1484 1483 1483 1482 1481 1481 1480 1480 1480 1478 1476 1476 1476 1475 1476 1476 1475 1475 1475 1476 1477 1478 1480 1482 1483 1484 1484 1484 1484 1485 1484 1483 1482 1482 1480 1476 1475 1473 1473 1477 1475 1473 1478 1479 1479 1482 1485 1492 1496 1497 1506 1510 1509 1509 1503 1500 1502 1503 1504 1507 1509 1511 1514 1517 1519 1522 1525 1528
1513 1511 1509 1507 1505 1504 1502 1500 1498 1496 1494 1492 1491 1489 1488 1487 1486 1485 1484 1484 1483 1483 1482 1482 1481 1480 1480 1479 1477 1476 1475 1475 1475 1474 1475 1475 1476 1476 1476 1477 1478 1479 1480 1481 1482 1483 1484 1484 1484 1483 1482 1481 1481 1481 1479 1474 1475 1474 1472 1477 1480 1481 1482 1477 1476 1481 1484 1490 1489 1491 1510 1515 1509 1505 1501 1500 1501 1502 1505 1507 1509 1511 1513 1516 1518 1521 1524 1527
1511 1510 1508 1506 1504 1503 1501 1499 1497 1495 1493 1491 1490 1488 1487 1486 1485 1484 1484 1483 1483 1482 1482 1482 1481 1481 1480 1477 1476 1476 1475 1475 1475 1474 1474 1476 1476 1476 1477 1477 1478 1480 1480 1480 1481 1482 1483 1484 1484 1483 1482 1481 1480 1479 1478 1476 1476 1476 1474 1477 1482 1489 1486 1472 1472 1480 1485 1490 1484 1487 1508 1513 1505 1503 1499 1499 1500 1501 1504 1505 1507 1510 1512 1515 1517 1520 1523 1525
1510 1509 1507 1505 1503 1502 1500 1498 1496 1493 1492 1490 1489 1487 1486 1485 1484 1484 1483 1483 1482 1482 1482 1482 1481 1481 1480 1477 1475 1475 1475 1474 1474 1474 1475 1475 1476 1476 1476 1477 1479 1479 1480 1481 1481 1481 1482 1482 1483 1482 1482 1481 1481 1482 1483 1482 1479 1476 1483 1487 1484 1488 1485 1470 1467 1473 1480 1489 1485 1488 1506 1508 1500 1499 1497 1499 1501 1500 1503 1504 1505 1508 1511 1514 1516 1519 1523 1524
1509 1508 1506 1504 1502 1501 1499 1497 1495 1493 1491 1489 1488 1486 1485 1484 1484 1483 1483 1482 1482 1481 1481 1482 1482 1482 1480 1476 1474 1474 1475 1474 1474 1475 1475 1474 1475 1475 1476 1477 1478 1479 1480 1480 1481 1481 1481 1481 1480 1481 1481 1482 1483 1485 1488 1489 1486 1480 1485 1490 1485 1484 1485 1475 1466 1463 1468 1483 1490 1490 1499 1505 1497 1494 1497 1499 1502 1503 1503 1503 1504 1507 1509 1512 1515 1518 1521 1523
1508 1507 1505 1503 1501 1500 1498 1496 1494 1492 1490 1488 1487 1486 1484 1484 1483 1483 1482 1482 1482 1481 1481 1482 1482 1482 1479 1474 1473 1474 1474 1474 1474 1474 1473 1473 1474 1474 1475 1476 1476 1478 1479 1480 1481 1481 1481 1480 1480 1481 1480 1482 1482 1485 1494 1500 1496 1486 1483 1486 1483 1479 1481 1478 1466 1459 1463 1478 1491 1491 1493 1499 1494 1490 1494 1497 1500 1502 1501 1501 1503 1505 1508 1511 1514 1517 1519 1522
1507 1506 1504 1502 1501 1499 1497 1495 1493 1491 1489 1488 1486 1485 1484 1483 1482 1482 1482 1482 1481 1481 1481 1481 1482 1484 1479 1473 1473 1473 1473 1474 1473 1473 1473 1473 1473 1473 1474 1474 1476 1477 1478 1479 1479 1479 1480 1479 1480 1482 1481 1483 1483 1486 1496 1499 1493 1488 1484 1484 1482 1477 1476 1475 1465 1457 1461 1473 1484 1490 1494 1495 1492 1491 1492 1494 1496 1498 1497 1499 1502 1504 1507 1510 1512 1515 1518 1520
1507 1505 1504 1502 1500 1499 1497 1495 1493 1490 1489 1488 1486 1485 1483 1482 1481 1481 1482 1481 1480 1480 1481 1479 1480 1482 1479 1473 1473 1473 1472 1473 1472 1472 1472 1472 1473 1473 1473 1474 1475 1476 1477 1479 1478 1477 1479 1480 1482 1485 1485 1485 1483 1484 1487 1486 1482 1480 1478 1478 1480 1478 1472 1467 1459 1450 1453 1468 1477 1483 1492 1493 1492 1494 1492 1492 1494 1495 1497 1498 1501 1504 1506 1508 1511 1513 1515 1518
1507 1505 1503 1501 1500 1498 1496 1494 1492 1490 1489 1488 1486 1485 1483 1483 1481 1481 1481 1480 1479 1478 1478 1477 1476 1476 1474 1472 1472 1472 1472 1472 1471 1471 1471 1472 1473 1473 1473 1474 1474 1474 1476 1477 1478 1475 1477 1483 1485 1485 1484 1481 1479 1478 1478 1478 1476 1474 1474 1476 1476 1476 1472 1460 1454 1449 1448 1465 1475 1474 1486 1491 1488 1489 1487 1489 1492 1493 1497 1498 1499 1502 1504 1506 1508 1511 1513 1515
1506 1505 1503 1501 1499 1497 1496 1494 1492 1491 1490 1489 1488 1486 1486 1486 1486 1485 1483 1479 1477 1477 1476 1475 1475 1474 1473 1473 1472 1471 1471 1471 1470 1471 1471 1471 1472 1472 1473 1473 1474 1476 1475 1474 1474 1473 1476 1484 1484 1479 1477 1475 1474 1473 1474 1476 1476 1475 1475 1477 1476 1474 1471 1457 1450 1449 1445 1460 1475 1471 1481 1489 1483 1482 1482 1484 1489 1491 1493 1495 1497 1499 1501 1504 1506 1509 1511 1513
1506 1504 1502 1500 1499 1497 1496 1494 1493 1492 1491 1490 1489 1488 1489 1489 1489 1488 1486 1481 1476 1474 1474 1473 1474 1473 1472 1473 1472 1471 1471 1470 1469 1470 1470 1470 1471 1472 1471 1471 1474 1475 1473 1473 1475 1477 1480 1483 1479 1473 1471 1471 1471 1470 1471 1474 1474 1476 1475 1478 1479 1472 1467 1457 1446 1445 1446 1458 1473 1471 1477 1485 1478 1476 1477 1478 1483 1487 1489 1491 1494 1496 1499 1502 1503 1506 1508 1511
1506 1503 1502 1500 1498 1497 1495 1494 1493 1491 1491 1491 1490 1490 1490 1490 1489 1488 1488 1485 1478 1473 1472 1472 1472 1472 1471 1472 1471 1471 1471 1469 1469 1470 1470 1470 1469 1470 1470 1470 1472 1472 1471 1473 1477 1481 1483 1479 1472 1468 1467 1469 1471 1469 1470 1473 1472 1474 1475 1478 1480 1470 1468 1466 1451 1446 1448 1454 1464 1468 1475 1481 1478 1478 1477 1477 1479 1482 1487 1489 1491 1494 1496 1499 1501 1503 1505 1507
1505 1502 1501 1499 1497 1496 1494 1493 1493 1491 1491 1490 1490 1491 1491 1490 1489 1487 1486 1484 1479 1472 1470 1470 1471 1471 1470 1471 1471 1471 1470 1469 1469 1469 1469 1469 1469 1469 1469 1468 1470 1471 1471 1470 1472 1477 1477 1469 1462 1463 1466 1467 1471 1470 1470 1474 1475 1473 1471 1474 1476 1468 1466 1465 1455 1450 1451 1451 1456 1466 1483 1487 1480 1481 1479 1476 1478 1480 1482 1486 1489 1492 1494 1496 1499 1501 1503 1505
1504 1502 1500 1497 1496 1494 1493 1493 1491 1491 1490 1489 1490 1491 1490 1489 1488 1487 1486 1484 1480 1472 1468 1469 1470 1470 1470 1470 1471 1470 1469 1469 1468 1469 1469 1469 1469 1469 1468 1467 1469 1471 1470 1467 1468 1472 1470 1462 1459 1462 1464 1465 1469 1470 1468 1471 1476 1474 1468 1466 1467 1465 1462 1459 1457 1457 1463 1467 1459 1464 1495 1501 1480 1477 1479 1474 1477 1479 1479 1481 1484 1488 1491 1493 1496 1498 1500 1503
1503 1501 1498 1497 1495 1493 1493 1491 1490 1490 1489 1490 1490 1489 1490 1489 1487 1487 1486 1488 1483 1470 1467 1470 1469 1470 1470 1470 1470 1470 1471 1470 1467 1469 1469 1469 1470 1470 1471 1468 1467 1469 1467 1464 1465 1466 1463 1458 1457 1460 1462 1463 1467 1469 1465 1465 1474 1477 1466 1458 1459 1461 1461 1460 1460 1465 1472 1475 1462 1457 1485 1500 1487 1479 1476 1472 1475 1478 1477 1477 1479 1483 1487 1489 1492 1495 1497 1499
1501 1499 1497 1496 1494 1492 1491 1490 1490 1490 1489 1490 1490 1489 1489 1487 1488 1487 1487 1495 1487 1468 1467 1470 1468 1469 1469 1469 1469 1471 1475 1473 1467 1468 1468 1469 1470 1469 1473 1471 1468 1467 1462 1463 1471 1466 1458 1458 1459 1459 1460 1462 1465 1467 1463 1460 1471 1474 1459 1454 1457 1458 1460 1459 1460 1468 1468 1465 1463 1457 1464 1487 1496 1483 1471 1471 1476 1479 1478 1477 1476 1477 1481 1484 1487 1490 1493 1496
1500 1498 1496 1495 1494 1492 1491 1490 1490 1489 1489 1490 1489 1489 1489 1487 1489 1487 1492 1501 1485 1464 1466 1468 1467 1469 1468 1469 1469 1469 1472 1470 1469 1470 1468 1469 1469 1468 1471 1470 1469 1468 1461 1467 1477 1467 1455 1458 1460 1459 1461 1463 1462 1460 1456 1457 1466 1465 1454 1452 1455 1455 1458 1456 1458 1465 1463 1464 1472 1464 1457 1479 1493 1478 1468 1471 1476 1481 1479 1475 1473 1473 1475 1479 1482 1486 1488 1492
1499 1497 1495 1494 1493 1492 1490 1490 1490 1489 1490 1489 1489 1489 1487 1488 1489 1486 1497 1500 1476 1462 1467 1467 1468 1470 1467 1469 1469 1467 1467 1466 1468 1470 1467 1468 1468 1468 1470 1468 1467 1467 1464 1466 1472 1465 1455 1454 1456 1458 1461 1461 1457 1453 1449 1453 1459 1455 1451 1452 1452 1453 1455 1455 1460 1463 1465 1473 1479 1467 1459 1476 1484 1472 1470 1476 1478 1479 1474 1468 1467 1468 1471 1474 1476 1481 1484 1488
1497 1495 1493 1492 1492 1491 1490 1490 1490 1489 1489 1488 1489 1488 1486 1488 1489 1493 1505 1493 1468 1464 1468 1465 1468 1468 1467 1468 1467 1467 1466 1465 1466 1467 1467 1467 1467 1467 1468 1467 1466 1467 1466 1465 1466 1463 1456 1452 1452 1455 1457 1454 1451 1450 1447 1449 1452 1450 1452 1456 1457 1458 1457 1457 1459 1461 1473 1484 1477 1464 1458 1469 1480 1472 1465 1468 1465 1462 1462 1464 1465 1465 1469 1472 1473 1476 1479 1483
1496 1494 1492 1491 1490 1490 1489 1489 1489 1489 1489 1489 1488 1486 1487 1487 1488 1499 1500 1476 1463 1468 1467 1466 1468 1466 1467 1468 1468 1468 1466 1466 1465 1466 1468 1466 1467 1468 1467 1468 1469 1470 1472 1470 1467 1463 1458 1456 1454 1452 1451 1449 1449 1451 1448 1446 1447 1451 1457 1461 1466 1468 1465 1468 1467 1468 1488 1494 1474 1460 1455 1463 1478 1470 1456 1452 1446 1445 1452 1457 1460 1462 1464 1467 1469 1472 1475 1479
1495 1493 1491 1490 1490 1489 1489 1489 1489 1489 1488 1488 1488 1486 1487 1490 1493 1497 1484 1466 1471 1475 1466 1467 1468 1465 1468 1467 1468 1468 1466 1468 1467 1467 1469 1468 1469 1469 1468 1471 1471 1477 1482 1476 1471 1467 1461 1457 1454 1452 1450 1449 1454 1457 1455 1451 1450 1457 1460 1464 1476 1483 1482 1488 1487 1483 1493 1490 1469 1460 1459 1464 1469 1457 1446 1446 1443 1443 1445 1444 1447 1451 1455 1460 1463 1467 1470 1475
1494 1492 1491 1490 1490 1489 1489 1488 1488 1488 1488 1488 1489 1486 1487 1496 1495 1485 1472 1469 1476 1473 1465 1468 1468 1467 1470 1470 1470 1469 1468 1470 1468 1469 1469 1468 1471 1469 1468 1469 1467 1476 1483 1477 1475 1475 1469 1460 1452 1454 1454 1450 1455 1462 1465 1462 1457 1460 1462 1467 1481 1491 1498 1503 1498 1494 1495 1485 1467 1460 1463 1468 1464 1447 1435 1435 1436 1437 1439 1439 1441 1444 1447 1453 1456 1461 1466 1470
1493 1492 1491 1490 1489 1489 1489 1489 1488 1487 1488 1489 1488 1487 1491 1497 1488 1475 1475 1475 1472 1468 1467 1470 1469 1470 1471 1471 1472 1470 1471 1472 1467 1470 1473 1472 1475 1473 1473 1473 1470 1474 1478 1478 1482 1482 1484 1478 1460 1457 1461 1455 1454 1457 1460 1460 1459 1459 1456 1463 1475 1480 1491 1498 1493 1493 1493 1482 1469 1464 1468 1470 1464 1447 1428 1422 1424 1426 1432 1436 1439 1442 1445 1449 1454 1460 1465 1468
1492 1491 1491 1489 1488 1489 1488 1489 1488 1487 1490 1489 1488 1490 1494 1494 1483 1478 1482 1479 1473 1471 1471 1470 1470 1473 1472 1470 1470 1471 1474 1476 1470 1471 1475 1475 1477 1476 1476 1479 1477 1478 1482 1489 1490 1485 1489 1483 1461 1457 1460 1456 1456 1453 1450 1455 1462 1458 1452 1461 1471 1466 1471 1479 1478 1475 1476 1479 1474 1467 1464 1456 1446 1437 1423 1418 1420 1421 1427 1432 1436 1443 1446 1450 1456 1459 1462 1465
1492 1490 1490 1488 1487 1488 1488 1489 1488 1488 1491 1489 1491 1493 1490 1486 1484 1482 1482 1479 1477 1476 1474 1473 1472 1474 1475 1471 1472 1474 1474 1476 1473 1475 1477 1475 1479 1481 1480 1482 1482 1482 1487 1495 1494 1492 1498 1485 1462 1461 1460 1453 1457 1455 1449 1455 1462 1459 1458 1463 1460 1452 1457 1471 1475 1465 1467 1484 1480 1462 1457 1449 1442 1439 1427 1422 1423 1420 1425 1430 1433 1441 1445 1449 1454 1455 1458 1462
1492 1490 1490 1488 1487 1489 1489 1489 1489 1490 1490 1490 1494 1493 1483 1481 1483 1482 1481 1480 1479 1477 1478 1481 1479 1478 1480 1477 1476 1475 1475 1477 1477 1478 1478 1477 1486 1491 1486 1486 1487 1486 1489 1494 1493 1494 1502 1492 1469 1467 1469 1457 1455 1456 1448 1445 1451 1459 1464 1458 1449 1450 1454 1463 1477 1476 1477 1490 1478 1457 1456 1454 1452 1451 1435 1426 1428 1424 1425 1428 1430 1437 1442 1446 1449 1451 1454 1456
1493 1491 1490 1489 1490 1491 1490 1489 1490 1490 1490 1491 1494 1488 1480 1482 1484 1482 1483 1482 1480 1479 1480 1486 1483 1479 1480 1483 1480 1475 1476 1481 1480 1480 1479 1480 1492 1498 1492 1492 1493 1491 1491 1494 1495 1493 1498 1500 1479 1468 1474 1466 1456 1459 1456 1445 1444 1451 1455 1449 1452 1468 1471 1467 1478 1485 1487 1492 1479 1460 1455 1451 1450 1447 1435 1429 1429 1424 1424 1426 1429 1434 1438 1442 1444 1447 1450 1452
1493 1492 1491 1490 1491 1491 1490 1490 1490 1489 1490 1491 1491 1486 1481 1483 1484 1484 1485 1483 1482 1483 1484 1487 1485 1480 1481 1484 1482 1476 1477 1482 1482 1483 1484 1487 1497 1500 1496 1497 1497 1496 1495 1493 1496 1494 1495 1505 1493 1471 1472 1474 1465 1465 1468 1463 1455 1448 1448 1449 1454 1466 1470 1467 1469 1474 1481 1488 1483 1471 1461 1450 1440 1432 1427 1427 1423 1419 1422 1424 1426 1429 1432 1436 1441 1444 1447 1449
1494 1493 1492 1491 1491 1491 1490 1490 1490 1490 1491 1489 1488 1486 1484 1484 1484 1485 1486 1485 1484 1486 1487 1487 1486 1485 1485 1483 1481 1481 1482 1482 1482 1485 1487 1490 1499 1502 1498 1499 1498 1499 1498 1493 1496 1497 1494 1503 1501 1481 1476 1482 1477 1469 1471 1477 1474 1465 1462 1462 1461 1460 1461 1464 1464 1460 1467 1479 1481 1479 1474 1454 1429 1416 1417 1418 1413 1410 1414 1418 1421 1422 1425 1430 1435 1438 1442 1445
1495 1494 1492 1490 1491 1490 1490 1490 1490 1489 1488 1486 1486 1487 1486 1485 1485 1486 1487 1486 1485 1486 1486 1486 1486 1487 1488 1487 1487 1487 1489 1488 1486 1488 1491 1493 1501 1505 1503 1502 1500 1500 1500 1497 1499 1504 1503 1505 1507 1498 1491 1491 1483 1470 1469 1476 1479 1476 1473 1469 1467 1463 1463 1472 1475 1460 1455 1466 1471 1475 1477 1454 1422 1410 1411 1411 1408 1403 1403 1411 1415 1416 1419 1425 1429 1433 1437 1440
1495 1494 1492 1491 1491 1490 1490 1489 1486 1484 1486 1487 1488 1489 1488 1486 1486 1487 1488 1486 1486 1487 1486 1486 1487 1488 1490 1492 1492 1492 1494 1495 1493 1494 1496 1499 1504 1507 1506 1505 1503 1502 1502 1503 1504 1506 1507 1506 1509 1506 1498 1491 1481 1470 1469 1474 1473 1471 1470 1466 1465 1462 1462 1474 1482 1468 1456 1457 1456 1463 1473 1453 1418 1409 1410 1405 1401 1399 1399 1405 1411 1414 1417 1421 1425 1430 1434 1437
1497 1495 1492 1492 1491 1490 1491 1490 1486 1485 1487 1487 1488 1490 1490 1489 1490 1492 1492 1490 1489 1490 1489 1489 1491 1493 1495 1494 1494 1495 1498 1498 1497 1497 1498 1500 1504 1507 1506 1506 1506 1504 1505 1508 1508 1507 1506 1508 1513 1511 1499 1487 1478 1468 1466 1468 1470 1472 1470 1467 1468 1469 1467 1471 1475 1472 1467 1463 1458 1465 1473 1452 1419 1411 1412 1401 1394 1395 1396 1400 1407 1413 1418 1421 1425 1429 1432 1434
1496 1494 1492 1493 1492 1490 1491 1493 1490 1488 1489 1487 1487 1490 1493 1493 1493 1495 1496 1495 1495 1494 1494 1495 1495 1497 1498 1497 1496 1498 1501 1503 1502 1501 1500 1501 1504 1506 1507 1507 1508 1507 1509 1514 1514 1512 1513 1514 1519 1522 1516 1503 1489 1479 1476 1476 1478 1483 1480 1474 1473 1473 1470 1468 1468 1472 1476 1474 1471 1474 1471 1449 1424 1418 1417 1409 1404 1402 1400 1400 1405 1410 1414 1419 1423 1426 1430 1433
1497 1495 1492 1493 1493 1491 1491 1493 1491 1490 1491 1491 1490 1490 1493 1496 1498 1498 1498 1499 1499 1499 1499 1499 1499 1499 1499 1500 1502 1502 1503 1506 1508 1506 1505 1505 1504 1506 1508 1510 1510 1510 1512 1515 1514 1515 1517 1518 1520 1527 1532 1527 1514 1504 1502 1498 1492 1489 1484 1478 1476 1473 1473 1473 1475 1482 1486 1481 1478 1479 1471 1451 1432 1427 1426 1422 1418 1415 1412 1412 1415 1418 1421 1421 1419 1422 1428 1431
1501 1499 1496 1495 1494 1492 1492 1492 1492 1493 1494 1496 1495 1493 1493 1497 1500 1500 1501 1501 1501 1501 1502 1501 1501 1503 1503 1505 1509 1510 1507 1508 1511 1511 1511 1512 1511 1510 1511 1511 1513 1514 1514 1515 1514 1514 1517 1518 1519 1524 1527 1526 1520 1512 1507 1503 1498 1493 1487 1482 1479 1476 1476 1477 1482 1487 1488 1485 1480 1476 1471 1462 1448 1439 1438 1433 1429 1427 1425 1422 1423 1425 1427 1423 1418 1420 1425 1429
1503 1503 1502 1501 1500 1498 1497 1495 1495 1497 1497 1499 1500 1498 1496 1498 1502 1502 1503 1503 1503 1504 1505 1504 1504 1507 1509 1511 1515 1517 1514 1513 1515 1516 1516 1517 1517 1515 1514 1513 1514 1515 1514 1515 1514 1514 1517 1519 1517 1517 1516 1514 1512 1507 1501 1499 1498 1494 1490 1486 1482 1479 1478 1481 1485 1484 1483 1489 1487 1472 1467 1470 1460 1448 1446 1442 1437 1434 1430 1426 1427 1427 1424 1420 1419 1425 1431 1433
1506 1505 1505 1505 1505 1504 1503 1500 1498 1500 1501 1502 1503 1502 1501 1502 1505 1507 1506 1504 1504 1506 1509 1509 1509 1510 1512 1513 1517 1520 1521 1521 1520 1519 1519 1520 1519 1518 1517 1515 1514 1514 1514 1515 1514 1513 1517 1519 1515 1512 1510 1506 1504 1502 1499 1497 1496 1491 1488 1487 1484 1481 1481 1482 1483 1478 1477 1487 1486 1472 1468 1470 1462 1453 1450 1445 1441 1439 1435 1433 1433 1431 1428 1427 1429 1433 1438 1439
1509 1509 1507 1506 1506 1506 1506 1504 1502 1503 1505 1506 1507 1507 1507 1507 1509 1511 1510 1508 1508 1509 1511 1514 1513 1513 1514 1515 1517 1520 1524 1526 1525 1522 1520 1520 1521 1520 1520 1517 1515 1514 1515 1515 1514 1514 1518 1519 1514 1511 1511 1506 1503 1500 1496 1495 1495 1490 1487 1487 1485 1483 1482 1482 1480 1475 1474 1477 1473 1468 1468 1464 1457 1455 1450 1443 1443 1442 1438 1437 1435 1434 1435 1436 1437 1438 1441 1445
1513 1514 1512 1510 1509 1508 1507 1505 1504 1506 1508 1509 1511 1512 1511 1511 1515 1515 1513 1513 1514 1513 1514 1516 1516 1516 1517 1517 1518 1520 1521 1523 1524 1522 1520 1520 1520 1520 1520 1519 1516 1515 1516 1516 1514 1516 1520 1521 1515 1512 1514 1511 1504 1499 1495 1494 1493 1490 1486 1485 1484 1483 1482 1480 1477 1473 1472 1473 1468 1466 1469 1463 1456 1455 1449 1442 1442 1443 1442 1441 1440 1441 1442 1441 1441 1443 1445 1448
1516 1517 1516 1515 1512 1509 1507 1506 1505 1509 1512 1513 1515 1515 1514 1515 1518 1519 1517 1517 1518 1517 1516 1517 1518 1518 1518 1517 1518 1520 1519 1520 1521 1519 1518 1519 1519 1519 1518 1517 1516 1515 1516 1516 1515 1516 1520 1522 1518 1516 1520 1516 1506 1501 1498 1493 1490 1489 1486 1484 1483 1483 1480 1476 1473 1472 1472 1473 1469 1470 1474 1469 1462 1461 1455 1444 1442 1445 1447 1447 1445 1446 1447 1446 1447 1448 1449 1451
1516 1516 1517 1517 1515 1511 1509 1508 1508 1512 1516 1517 1517 1518 1518 1518 1519 1521 1522 1520 1519 1518 1518 1519 1520 1520 1520 1519 1519 1520 1521 1520 1519 1518 1518 1517 1516 1516 1516 1514 1514 1514 1514 1515 1515 1515 1518 1521 1520 1522 1525 1519 1509 1505 1500 1496 1499 1497 1487 1480 1479 1478 1476 1472 1472 1473 1471 1470 1471 1476 1479 1474 1466 1465 1463 1453 1446 1448 1451 1452 1451 1450 1451 1452 1453 1453 1453 1454